Weather History for Danbury, CT

Change the Weather History Date:

Sunday, December 9, 2012

  Actual Average Record
Temperature  
Mean Temperature 42 °F -  
Max Temperature 46 °F 42 °F 63 °F (1991)
Min Temperature 39 °F 25 °F 6 °F (2002)
Degree Days  
Heating Degree Days 22    
Moisture  
Dew Point 39 °F    
Average Humidity 88    
Maximum Humidity 100    
Minimum Humidity 65    
Precipitation  
Precipitation 0.14 in - - ()
Sea Level Pressure  
Sea Level Pressure 30.16 in    
Wind  
Wind Speed 3 mph (NE)    
Max Wind Speed 10 mph    
Max Gust Speed -    
Visibility 6 miles    
Events Fog , Rain    
Averages and records for this station are not official NWS values.
T = Trace of Precipitation, MM = Missing Value Source: NWS Daily Summary

Daily Weather History Graph

Daily Weather History Graph

Search for Another Location

Airport:

Trip Planner

Search our weather history database for the weather conditions in past years. The results will help you decide how hot, cold, wet, or windy it might be!

Date:

Astronomy

Dec. 09, 2012 Rise Set
Actual Time 7:08 AM EST 4:24 PM EST
Civil Twilight 6:37 AM EST 4:55 PM EST
Nautical Twilight 6:02 AM EST 5:30 PM EST
Astronomical Twilight 5:29 AM EST 6:03 PM EST
Moon 2:36 AM EST (12/9) 1:31 PM EST (12/9)
Length of Visible Light 10h 18m
Length of Day
9h 15m
Waning Crescent, 19% of the Moon is Illuminated
Dec 9
Waning Crescent
Dec 13
New
Dec 20
First Quarter
Dec 28
Full
Jan 4
Last Quarter

Hourly Weather History & Observations

Time (EST) Temp. Windchill Dew Point Humidity Pressure Visibility Wind Dir Wind Speed Gust Speed Precip Events Conditions
12:15 AM 46.4 °F - 46.4 °F 100% 30.00 in 0.8 mi Calm Calm - N/A   Overcast
12:53 AM 46.0 °F 43.9 °F 46.0 °F 100% 30.02 in 0.5 mi WSW 4.6 mph - N/A Fog Fog
1:53 AM 46.0 °F - 46.0 °F 100% 30.05 in 0.5 mi Calm Calm - N/A Fog Fog
2:49 AM 44.6 °F 42.2 °F 44.6 °F 100% 30.07 in 1.2 mi North 4.6 mph - N/A   Overcast
2:53 AM 45.0 °F - 45.0 °F 100% 30.07 in 2.0 mi Calm Calm - N/A   Overcast
3:02 AM 44.6 °F - 44.6 °F 100% 30.07 in 4.0 mi Calm Calm - N/A   Overcast
3:13 AM 44.6 °F - 44.6 °F 100% 30.08 in 5.0 mi Calm Calm - N/A   Overcast
3:24 AM 44.6 °F - 44.6 °F 100% 30.08 in 5.0 mi Calm Calm - N/A   Overcast
3:53 AM 46.0 °F - 45.0 °F 96% 30.09 in 6.0 mi Calm Calm - N/A   Overcast
4:28 AM 44.6 °F - 42.8 °F 93% 30.11 in 2.5 mi Calm Calm - N/A   Scattered Clouds
4:33 AM 42.8 °F - 42.8 °F 100% 30.11 in 1.0 mi Calm Calm - 0.01 in   Scattered Clouds
4:42 AM 44.6 °F - 42.8 °F 93% 30.11 in 1.5 mi Calm Calm - 0.01 in   Partly Cloudy
4:44 AM 42.8 °F - 42.8 °F 100% 30.11 in 4.0 mi Calm Calm - 0.01 in   Clear
4:53 AM 43.0 °F 40.3 °F 42.1 °F 97% 30.12 in 7.0 mi NNE 4.6 mph - 0.01 in   Clear
5:53 AM 39.9 °F - 37.9 °F 93% 30.16 in 9.0 mi Calm Calm - N/A   Clear
6:53 AM 41.0 °F 36.4 °F 36.0 °F 82% 30.20 in 10.0 mi North 6.9 mph - N/A   Clear
7:23 AM 39.2 °F 33.0 °F 33.8 °F 81% 30.23 in 10.0 mi North 9.2 mph - N/A   Clear
7:53 AM 41.0 °F 35.8 °F 34.0 °F 76% 30.24 in 10.0 mi North 8.1 mph - N/A   Clear
8:53 AM 41.0 °F 34.7 °F 32.0 °F 70% 30.26 in 10.0 mi North 10.4 mph - N/A   Clear
9:53 AM 41.0 °F 36.4 °F 32.0 °F 70% 30.27 in 10.0 mi NNE 6.9 mph - N/A   Clear
10:53 AM 41.0 °F 35.8 °F 30.9 °F 67% 30.27 in 10.0 mi North 8.1 mph - N/A   Mostly Cloudy
11:53 AM 41.0 °F 36.4 °F 30.9 °F 67% 30.25 in 10.0 mi North 6.9 mph - N/A   Overcast
12:53 PM 42.1 °F 39.2 °F 30.9 °F 65% 30.24 in 10.0 mi NE 4.6 mph - N/A   Overcast
1:53 PM 42.1 °F 38.4 °F 32.0 °F 67% 30.23 in 10.0 mi ENE 5.8 mph - N/A   Overcast
2:53 PM 42.1 °F 38.4 °F 34.0 °F 73% 30.22 in 8.0 mi ENE 5.8 mph - 0.00 in Rain Light Rain
3:53 PM 42.1 °F 40.2 °F 35.1 °F 76% 30.22 in 10.0 mi ENE 3.5 mph - 0.00 in Rain Light Rain
5:53 PM 41.0 °F 37.1 °F 36.0 °F 82% 30.24 in 7.0 mi ENE 5.8 mph - 0.02 in Rain Light Rain
6:34 PM 39.2 °F 34.2 °F 37.4 °F 93% 30.21 in 7.0 mi ENE 6.9 mph - 0.02 in Rain Light Rain
6:53 PM 39.9 °F 35.8 °F 37.0 °F 89% 30.22 in 7.0 mi ENE 5.8 mph - 0.02 in Rain Light Rain
7:53 PM 39.9 °F 35.1 °F 37.9 °F 93% 30.20 in 3.0 mi East 6.9 mph - 0.01 in Rain Light Rain
8:14 PM 39.2 °F 34.2 °F 37.4 °F 93% 30.19 in 4.0 mi ENE 6.9 mph - 0.00 in Rain Light Rain
8:27 PM 39.2 °F 33.6 °F 37.4 °F 93% 30.18 in 4.0 mi ENE 8.1 mph - 0.00 in Rain Light Rain
8:53 PM 39.9 °F 34.5 °F 37.9 °F 93% 30.17 in 4.0 mi East 8.1 mph - 0.00 in   Overcast
9:53 PM 39.9 °F 33.9 °F 37.9 °F 93% 30.12 in 4.0 mi East 9.2 mph - 0.01 in Rain Light Rain
10:53 PM 39.9 °F 35.1 °F 37.9 °F 93% 30.11 in 3.0 mi ENE 6.9 mph - 0.00 in Rain Light Rain
11:53 PM 39.9 °F 35.1 °F 37.9 °F 93% 30.07 in 4.0 mi ENE 6.9 mph - 0.07 in Rain Rain